loading
DOY 203 | 2024-07-21T09:17:15Z
Showing default

BEIDOU 11, 38091

Orbit data source: Space-Track

BEIDOU 11, 38091 is a payload satellite owned by CNSA (CN) in GEO that was launched on Fri, 24 Feb 2012 UTC via a Chang Zheng 3C launch vehicle from the Xichang Space Center, China (XSC). Payloads include a variety of satellites, spacecraft, and rockets equipped with specific instruments for various scientific and technological missions. These include communications satellites like Starlink; space stations such as the ISS; scientific satellites like the Hubble; Earth observation satellites from companies like Planet Labs, Umbra, and HawkEye 360; GPS; miniature CubeSats for education and research; and military/defense satellites.

Next visibility unknown
Loading greatness...
BEIDOU 11 details
NORAD ID38091
COSPAR ID
2012-008A
Orbit
GEO
Last TLE update6 hours ago
Origin
Flag of CNCNSA (CN / PRC)
ManufacturerCAST
BusDFH-3B
MotorFY-25
Mass3,060 kg wet, 1,700 kg dry
Launch date (UTC)
2012-02-24 (12 years ago)
Launch vehicle
Chang Zheng 3C
Launch site
Xichang Space Center, China (XSC)
Object type
Payload
Rocket body
Debris
Radar Cross SectionLarge (>1 m²)
Predictive object data (real-time)
Latitude2.00449°
Longitude141.66805°
Altitude35,801.089 km
Speed3.074 km/s
Apparent Right ascension09h 17m 09s
Apparent Declination-3° 10' 15"
Sunlit
Object is in daylight
Predictive observer data (real-time)
Local Sidereal Time22:15:19
Azimuth23.462° NE
Elevation-50.965°
Doppler factor1
Orbital elements
Apogee35,803.102 km
Perigee35,773.636 km
Semi-major axis42,166.506 km
Eccentricity0.0003494
Inclination2.1556°
RAAN71.1134°
Arg. of periapsis256.7053°
True anomaly86.83788°
Mean anomaly86.7979°
Mean motion0.25066 °/min
BSTARUnknown
Period1436.19 mins
Definitive object data (Epoch: 2024-07-21T03:46:09.455Z)
Latitude-0.61154°
Longitude58.72551°
Altitude35,786.129 km
Speed3.075 km/s
True Right ascension03h 38m 41s
True Declination0° 36' 39"
Sunlit
Object was in daylight at TLE epoch
TLE from 6 hours ago
0 BEIDOU 11
1 38091U 12008A   24203.15705388  .00000063  00000-0  00000+0 0  9998
2 38091   2.1556  71.1134 0003494 256.7053  86.7979  1.00269268 45499
Epoch: 2024-07-21T03:46Z
No data available

BEIDOU 11 Visibility forecast

Observer location: 39.9160978°, -105.1181434

BEIDOU 11 is not visible in the next 10 days
Span
Click to sort rows by Start time (UTC) header in descending order
Start Az.
Max El. time (UTC)
Max El. Az.
Max El.
End time (UTC)
End Az.